Regional Weather Roundup
Issued by NWS Green Bay, WI

Home | Current Version | Previous Version | Graphics & Text | Print | Product List | Glossary Off
Versions: 1 2 3 4 5 6 7 8 9 10 11 12 13 14 15 16 17 18 19 20 21 22 23 24 25 26 27 28 29 30 31 32 33 34 35 36 37 38 39 40 41 42 43 44 45 46 47 48 49 50

000
ASUS43 KGRB 270400
RWRGRB

NORTH-CENTRAL AND NORTHEAST WISCONSIN REGIONAL WEATHER ROUNDUP
NATIONAL WEATHER SERVICE GREEN BAY WI
1100 PM CDT TUE JUL 26 2016

WIZ005-009-010>012-018-019-270500-
NORTH CENTRAL WISCONSIN

CITY           SKY/WX    TMP DP  RH WIND       PRES   REMARKS
IRONWOOD       CLOUDY    66  64  94 CALM      29.95S
MANITOWISH WTR NOT AVBL
ARBOR VITAE    NOT AVBL
EAGLE RIVER    NOT AVBL
LAND O LAKES   NOT AVBL
RHINELANDER    CLOUDY    68  63  84 CALM      30.01F
PHILLIPS       PTCLDY    69  68  96 CALM      29.99S
ANTIGO         NOT AVBL
TOMAHAWK       NOT AVBL
MERRILL        NOT AVBL
$$

WIZ013-073-270500-
NORTHEAST WISCONSIN

CITY           SKY/WX    TMP DP  RH WIND       PRES   REMARKS
IRON MOUNTAIN  CLOUDY    69  64  84 W3        29.96S
MARINETTE      CLEAR    N/A N/A N/A W5        29.94F
$$

WIZ017-030-035>037-045-270500-
CENTRAL WISCONSIN

CITY           SKY/WX    TMP DP  RH WIND       PRES   REMARKS
MEDFORD        NOT AVBL
WAUSAU         CLEAR     74  67  78 VRB3      29.98F
MOSINEE        NOT AVBL
MARSHFIELD     CLEAR     71  66  84 SW5       30.01R
WISC RAPIDS    CLEAR     74  65  73 W6        30.01S
STEVENS POINT  NOT AVBL
WAUPACA        NOT AVBL
SHAWANO        NOT AVBL
CLINTONVILLE   NOT AVBL
WAUTOMA        PTCLDY    73  68  84 SW3       30.00F
$$

WIZ038-039-048-051-270500-
FOX VALLEY

CITY           SKY/WX    TMP DP  RH WIND       PRES   REMARKS
NWS GREEN BAY  CLEAR     74  70  87 SW3       29.97F
APPLETON       PTCLDY    75  64  69 SW7       29.98S
OSHKOSH        CLEAR     74  66  76 S5        29.99S
FOND DU LAC    CLEAR     72  66  81 SW6       30.00F
$$

WIZ022-050-052-270500-
EAST CENTRAL WISCONSIN

CITY           SKY/WX    TMP DP  RH WIND       PRES   REMARKS
EPHRAIM        FAIR      78  68  70 SW7       29.94S
WASHINGTON ISL NOT AVBL
STURGEON BAY   CLEAR     75  68  78 SW7       29.96F
MANITOWOC      NOT AVBL
SHEBOYGAN      CLEAR     69  62  78 S5        29.99F
$$

LMZ563-521-522-541>543-270500-
LAKESHORE

STATION/POSITION TIME  TEMP    WIND        PRES    VSBY  WAVE
                       AIR SEA DIR/SP/G                  HT/PER
                 (UTC) (F)     (DEG/KT/KT) (MB)    (MI)  (FT/S)
SHEBOYGAN LKSHOR 0300   75     220/  7/  8 1016.0R
KEWAUNEE LKSHORE 0300          200/  7/  7   N/A
ALGOMA MARINA    0313          220/  5/  7   N/A
NORTHPORT PIER   0300   77     170/  2/  7 1013.5R
N MID LAKE BUOY  0250   72 69  210/ 17/ 19 1012.2F         3/ 4
S GREEN BAY BUOY 0300   77 74  210/  8/ 10   N/A
SISTER BAY LKSHO 0321   81     250/ 12/ 14   N/A
CHAMBERS ISLAND  0300   78     200/  9/ 13 1013.5S
MENOMINEE LKSHOR 0300          210/  9/ 11   N/A
$$




USA.gov is the U.S. government's official web portal to all federal, state and local government web resources and services.